CAPE
0 0 0 0 0 0 0 0 0 0 0 0 38 414 198 281 529 324 144 119 91 6 0 0 0 57 37 23 112 134 99 42 127 84 192 292 64 196 635 344 685 890 167 418
0 0 0 0 0 0 0 0 0 0 0 0 58 286 218 82 374 300 190 161 112 33 0 2 0 98 23 64 76 199 58 0 126 34 91 224 84 101 552 508 715 856 737 612
0 0 0 0 0 0 0 0 0 0 0 27 166 187 153 138 16 4 59 38 112 95 5 0 0 133 61 57 7 134 97 0 112 3 39 96 12 254 433 632 764 818 661 460
0 0 0 0 0 0 0 0 0 0 0 0 0 0 169 183 94 57 0 38 27 118 57 0 0 97 54 67 11 66 134 3 16 1 18 137 202 124 322 560 778 1045 854 796
0 0 0 0 0 0 0 0 0 0 0 0 0 0 0 235 263 87 1 46 34 65 84 5 0 7 37 47 28 0 16 54 54 27 22 33 158 0 44 254 652 870 784 916
0 0 0 0 0 0 0 0 0 0 0 0 0 0 0 92 292 111 19 27 69 95 96 92 1 0 19 26 22 0 7 28 59 26 9 22 58 74 43 152 432 499 675 852
0 0 0 0 0 0 0 0 0 0 0 0 0 0 0 0 0 135 59 79 25 186 85 183 0 0 0 38 27 25 4 47 97 26 0 2 13 2 32 106 369 476 623 956
0 0 0 0 0 0 0 0 0 0 0 0 0 0 0 0 0 0 1 51 0 205 116 148 22 0 0 2 40 76 0 66 133 97 0 0 0 0 0 39 265 489 500 906
0 0 0 0 0 0 0 0 0 0 0 0 0 0 0 0 0 0 0 0 16 119 149 152 64 17 0 0 18 59 36 0 78 154 30 0 0 0 0 42 161 497 356 544
0 0 0 0 0 0 0 0 0 0 0 0 0 0 0 0 0 0 0 3 0 0 0 0 25 62 11 0 0 41 81 44 0 96 139 58 0 0 0 0 520 453 421 307
0 0 0 0 0 0 0 0 0 0 0 0 0 0 0 0 0 0 0 0 0 0 0 0 6 83 52 18 3 4 136 91 29 4 61 103 61 46 0 0 0 383 360 194
0 0 0 0 0 0 0 0 0 0 0 0 0 0 0 0 0 0 0 0 0 0 0 0 9 47 155 48 52 10 32 166 78 55 9 0 0 22 95 0 0 0 391 121
0 0 0 0 0 0 0 0 0 0 0 0 0 0 0 0 0 0 0 0 0 2 0 23 125 146 173 92 79 50 5 60 98 83 36 0 0 0 53 174 16 0 127 364
0 0 0 0 0 0 0 0 0 0 0 0 0 0 0 0 0 0 0 0 0 20 8 80 29 4 1 15 47 68 62 0 0 131 89 23 0 0 0 0 209 24 10 216
0 0 0 0 0 0 0 0 0 0 0 0 0 0 0 0 0 0 0 0 2 150 57 36 36 10 13 9 0 2 7 117 1 77 145 121 58 0 0 0 0 213 78 73
0 0 0 0 0 0 0 0 0 0 0 0 0 0 0 0 0 0 0 0 0 0 0 0 145 106 83 20 16 0 0 1 266 103 198 220 186 117 0 0 0 16 114 119
0 0 0 0 0 0 0 0 0 0 0 0 0 0 0 0 0 0 0 0 0 0 0 7 127 2 1 70 8 54 1 0 131 373 294 279 245 290 200 2 0 0 7 10
0 0 0 0 0 0 0 0 0 0 0 0 0 0 0 0 0 0 0 0 0 0 0 43 3 0 0 0 164 146 42 43 235 529 535 452 292 300 398 289 6 0 0 0
0 0 0 0 0 0 0 0 0 0 0 0 0 0 0 0 0 0 0 0 0 0 0 2 0 0 0 0 0 0 12 144 212 310 454 544 571 309 386 514 464 214 0 0
0 0 0 0 0 0 0 0 0 0 0 0 0 0 0 0 0 0 0 0 0 0 0 0 0 0 0 0 0 0 0 2 1 0 0 18 582 953 557 511 544 627 386 342
0 0 0 0 0 0 0 0 0 2 0 0 0 0 0 0 0 0 0 0 0 0 0 0 0 0 0 0 0 0 0 1 5 6 1 0 0 307 1209 874 727 706 823 829
0 0 0 0 0 0 0 0 0 0 0 0 0 0 0 0 0 0 0 0 0 0 0 0 0 0 0 0 0 0 0 2 4 8 4 0 0 38 614 1424 1162 1044 957 930
1 0 0 0 0 0 0 0 0 1 1 0 1 0 0 0 0 0 0 0 0 0 0 0 0 0 0 0 0 0 0 0 1 4 1 2 0 0 118 1256 1483 1199 1227 1195
0 0 0 0 0 0 0 0 0 0 2 1 1 1 3 2 0 1 0 0 0 0 0 0 0 0 0 0 0 0 0 0 0 0 1 1 0 0 50 1332 1564 1510 1429 1415
0 0 0 0 0 0 0 0 0 5 6 5 8 15 11 7 4 7 1 0 0 0 0 0 0 0 0 0 0 0 0 0 0 0 0 1 1 0 2 1423 1575 1694 1657 1525
0 0 0 0 0 0 0 0 0 5 9 26 18 13 15 17 2 3 6 0 0 0 0 0 0 0 0 0 0 0 0 0 0 0 0 0 0 1 2 795 1511 346 419 1325
CIN
0 0 0 0 0 0 0 0 0 0 0 0 -45 -91 -267 -246 -141 -120 -171 -132 -101 -175 0 0 0 -200 -197 -178 -184 -184 -186 -238 -201 -236 -172 -139 -182 -150 -117 -159 -108 -116 -186 -154
0 0 0 0 0 0 0 0 0 0 0 0 -178 -135 -163 -259 -113 -122 -185 -166 -90 -79 0 -122 0 -221 -294 -208 -190 -156 -210 0 -197 -261 -221 -146 -183 -182 -145 -139 -126 -119 -119 -128
0 0 0 0 0 0 0 0 0 0 0 -90 -107 -125 -149 -148 -206 -152 -190 -203 -119 -120 -201 0 0 -273 -275 -254 -179 -192 -226 0 -209 -128 -268 -239 -271 -168 -124 -107 -106 -118 -116 -151
0 0 0 0 0 0 0 0 0 0 0 0 0 0 -119 -120 -145 -226 0 -259 -280 -162 -127 0 0 -290 -339 -340 -315 -253 -219 -126 -255 -20 -251 -167 -129 -138 -132 -122 -108 -95 -110 -99
0 0 0 0 0 0 0 0 0 0 0 0 0 0 0 -116 -108 -225 -39 -292 -317 -277 -166 -135 0 -302 -318 -342 -372 0 -271 -278 -273 -290 -272 -231 -180 0 -172 -145 -96 -102 -117 -103
0 0 0 0 0 0 0 0 0 0 0 0 0 0 0 -212 -241 -306 -288 -338 -318 -265 -201 -157 -22 0 -228 -303 -397 0 -266 -270 -283 -330 -263 -296 -223 -164 -156 -150 -110 -130 -126 -116
0 0 0 0 0 0 0 0 0 0 0 0 0 0 0 0 0 -312 -336 -308 -372 -253 -248 -136 0 0 0 -362 -408 -391 -98 -271 -253 -298 0 -81 -305 -11 -171 -143 -120 -130 -123 -102
0 0 0 0 0 0 0 0 0 0 0 0 0 0 0 0 0 0 -44 -340 0 -283 -280 -227 -281 0 0 -216 -419 -386 0 -327 -260 -283 0 0 0 0 0 -123 -141 -129 -129 -113
0 0 0 0 0 0 0 0 0 0 0 0 0 0 0 0 0 0 0 0 -184 -254 -247 -261 -296 -357 0 0 -313 -410 -306 0 -323 -271 -213 0 0 0 0 -216 -175 -125 -133 -128
0 0 0 0 0 0 0 0 0 0 0 0 0 0 0 0 0 0 0 -74 0 0 0 0 -279 -301 -382 0 0 -409 -397 -402 0 -331 -288 -197 0 0 0 0 -125 -145 -153 -150
0 0 0 0 0 0 0 0 0 0 0 0 0 0 0 0 0 0 0 0 0 0 0 0 -247 -300 -357 -489 -377 -544 -403 -400 -429 -290 -339 -306 -334 -369 0 0 0 -155 -170 -209
0 0 0 0 0 0 0 0 0 0 0 0 0 0 0 0 0 0 0 0 0 0 0 0 -352 -350 -285 -456 -503 -511 -522 -418 -444 -452 -291 0 0 -370 -349 0 0 -3 -155 -232
0 0 0 0 0 0 0 0 0 0 0 0 0 0 0 0 0 0 0 0 0 -103 0 -309 -426 -340 -244 -382 -401 -474 -432 -491 -407 -425 -446 0 0 0 -302 -354 -106 0 -240 -165
0 0 0 0 0 0 0 0 0 0 0 0 0 0 0 0 0 0 0 0 0 -454 -553 -515 -237 -355 -58 -254 -485 -394 -422 0 0 -368 -386 -314 0 0 0 0 -352 -182 -73 -225
0 0 0 0 0 0 0 0 0 0 0 0 0 0 0 0 0 0 0 0 -59 -304 -411 -472 -493 -523 -519 -378 0 -119 -101 -263 -51 -341 -319 -363 -423 0 0 0 0 -346 -311 -291
0 0 0 0 0 0 0 0 0 0 0 0 0 0 0 0 0 0 0 0 0 0 0 0 -272 -332 -365 -464 -503 0 0 -253 -244 -332 -343 -347 -311 -326 0 0 0 -364 -357 -317
0 0 0 0 0 0 0 0 0 0 0 0 0 0 0 0 0 0 0 0 0 0 0 -41 -142 -15 -56 -332 -467 -352 -32 0 -281 -224 -288 -311 -305 -295 -315 -40 0 0 -335 -263
0 0 0 0 0 0 0 0 0 0 0 0 0 0 0 0 0 0 0 0 0 0 0 -171 0 0 0 0 -261 -313 -194 -373 -258 -178 -200 -233 -262 -266 -236 -298 -226 0 0 0
0 0 0 0 0 0 0 0 0 0 0 0 0 0 0 0 0 0 0 0 0 0 0 -16 0 0 0 0 0 0 -52 -259 -178 -178 -149 -129 -108 -243 -229 -226 -245 -345 0 0
0 0 0 0 0 0 0 0 0 0 0 0 0 0 0 0 0 0 0 0 0 0 0 0 0 0 0 0 0 0 0 0 0 0 0 -499 -149 -93 -196 -200 -221 -221 -293 -265
0 0 0 0 0 0 0 0 0 -3 0 0 0 0 0 0 0 0 0 0 0 0 0 0 0 0 0 0 0 0 0 0 0 0 0 0 0 -308 -63 -126 -187 -208 -199 -168
0 0 0 0 0 0 0 0 0 0 0 0 0 0 0 0 0 0 0 0 0 0 0 0 0 0 0 0 0 0 0 0 0 0 0 0 0 -510 -154 -43 -110 -172 -175 -149
-1 0 0 0 0 0 0 0 0 -4 -1 0 0 0 0 0 0 0 0 0 0 0 0 0 0 0 0 0 0 0 0 0 0 0 0 0 0 0 -462 -90 -119 -147 -138 -108
0 -2 0 0 0 0 0 0 0 -1 -2 -4 -5 -5 -2 0 0 0 0 0 0 0 0 0 0 0 0 0 0 0 0 0 0 0 0 0 0 0 -592 -156 -126 -111 -111 -109
0 0 0 0 0 0 0 0 0 -9 -11 -8 -2 0 0 0 0 0 0 0 0 0 0 0 0 0 0 0 0 0 0 0 0 0 0 0 0 0 0 -139 -149 -140 -116 -142
0 0 0 0 0 0 0 0 0 -15 -14 0 0 0 0 0 -1 0 0 0 0 0 0 0 0 0 0 0 0 0 0 0 0 0 0 0 0 0 0 -228 -84 -547 -534 -151
Wind_Speed
4 5 5 7 7 6 3 3 3 4 6 2 9 9 17 10 13 17 21 18 19 19 16 20 18 19 17 15 15 14 13 9 6 3 4 2 3 2 2 3 5 5 4 5
6 4 8 3 6 5 3 2 4 6 6 3 3 7 6 4 5 17 23 18 16 17 16 20 19 19 18 19 17 15 14 12 8 4 3 3 3 2 1 3 3 5 5 5
5 5 4 3 1 1 2 5 4 6 6 5 6 4 5 2 2 2 4 5 10 15 15 18 19 21 19 19 19 17 16 14 10 7 4 3 4 3 2 0 2 4 5 5
4 3 6 5 5 7 4 8 6 4 3 1 3 4 6 12 6 9 10 7 7 14 13 15 18 21 21 20 17 17 15 14 10 10 7 6 5 4 3 4 3 3 5 5
6 2 5 4 9 8 10 6 6 5 4 4 3 3 4 9 11 18 19 14 11 12 15 17 20 21 21 20 18 16 15 13 11 11 11 7 5 3 2 3 4 4 4 5
4 2 3 6 5 9 6 2 6 5 4 2 7 6 6 6 16 15 17 17 13 12 14 16 17 18 19 17 17 16 16 15 12 12 10 11 9 7 4 3 4 3 3 3
5 4 4 6 2 5 7 7 3 3 2 6 5 4 9 9 11 18 24 23 17 17 15 16 17 19 18 20 19 17 17 16 14 13 11 11 10 9 8 6 5 5 3 3
3 3 6 8 2 1 2 7 7 6 4 4 4 5 3 8 12 8 17 16 13 18 17 19 15 20 20 21 21 20 18 17 15 14 14 10 9 6 5 6 4 4 5 6
3 3 5 5 6 2 4 4 2 8 4 4 2 5 3 8 14 12 4 5 9 16 15 19 19 20 20 21 21 22 20 17 17 17 13 11 10 9 7 7 5 4 5 5
1 2 2 5 5 8 7 1 3 5 4 4 4 3 2 8 8 8 9 7 5 7 9 11 17 18 19 19 20 19 20 21 19 18 15 12 12 10 8 6 7 7 6 6
3 4 5 3 6 4 7 7 6 4 4 5 4 4 2 3 5 8 9 8 11 12 17 16 18 18 18 17 19 20 19 20 17 16 15 14 12 10 9 9 8 7 6 6
5 5 3 3 7 7 16 4 4 5 4 1 2 2 6 9 7 6 9 11 14 12 17 22 16 16 17 17 19 20 19 20 19 18 16 15 13 11 11 10 9 8 8 6
3 5 4 6 7 9 8 6 4 4 3 2 2 4 13 11 9 10 12 13 13 15 10 5 5 8 13 13 15 17 17 17 15 16 17 14 14 13 13 12 10 9 8 7
7 5 5 6 4 3 2 3 5 5 4 3 4 7 13 18 11 12 14 15 14 10 12 10 9 7 6 6 5 6 12 13 13 14 15 17 16 15 15 13 10 10 10 9
6 4 2 4 6 3 4 2 2 4 4 4 7 6 11 11 13 11 11 13 16 13 14 10 8 6 6 2 2 1 3 11 13 14 13 14 14 15 13 13 13 11 10 11
5 2 2 3 5 3 1 3 6 7 7 6 5 9 6 7 12 15 17 14 11 11 12 11 11 11 9 4 6 4 5 5 10 13 15 12 12 12 15 14 13 13 11 11
3 4 3 3 6 8 6 4 3 1 1 4 7 2 7 8 11 13 16 16 15 12 9 8 9 11 11 10 4 6 7 7 9 16 15 15 15 16 15 13 13 14 14 12
4 4 2 2 4 2 5 5 3 9 8 8 6 8 8 8 11 3 12 15 16 15 14 8 9 11 12 13 13 6 3 4 6 11 13 13 16 16 12 13 15 14 13 14
2 5 3 4 3 5 2 6 6 6 2 4 3 8 12 14 8 6 12 17 14 13 11 10 7 9 8 12 11 9 11 7 7 5 2 8 11 14 13 14 16 13 13 12
5 6 5 3 4 4 1 6 9 5 4 10 10 8 12 12 4 5 15 17 17 16 8 10 9 8 6 9 8 6 9 8 7 7 6 8 7 13 16 17 17 13 11 14
4 4 3 1 3 4 3 11 5 6 2 7 9 9 11 8 4 11 17 18 15 15 13 6 8 8 5 5 7 11 9 10 10 11 9 9 6 8 13 14 11 12 12 10
1 3 2 1 3 6 5 3 2 2 1 3 11 12 14 16 19 13 15 16 17 17 16 8 4 4 8 8 8 8 9 8 8 9 10 11 6 6 9 14 12 13 12 13
4 7 5 7 6 2 2 4 7 6 9 12 11 12 14 17 18 19 16 16 17 18 13 7 4 3 3 7 5 7 8 13 13 11 14 12 10 8 9 13 14 11 13 13
3 2 2 3 4 4 1 1 2 8 9 11 12 13 13 18 17 20 19 17 14 15 14 6 5 5 5 3 3 3 5 6 8 10 10 15 10 9 11 7 7 9 10 12
5 4 4 6 8 6 6 7 3 6 9 10 12 13 15 16 17 18 19 20 18 14 13 7 6 5 5 4 6 5 4 4 8 8 8 12 10 10 11 8 8 11 12 13
6 8 7 8 8 5 6 6 7 8 9 10 14 13 13 13 16 17 17 15 15 14 9 6 6 4 4 6 8 4 3 4 5 7 8 6 10 9 9 9 9 4 7 14
Wind_Direction
203 110 186 200 186 183 159 155 273 281 234 246 204 199 202 192 178 187 191 197 201 185 181 178 170 174 175 178 172 177 169 169 161 144 136 116 190 182 187 173 203 176 168 169
46 188 212 214 166 182 192 239 278 293 280 149 136 235 185 98 199 192 194 194 204 191 171 176 175 170 170 176 179 173 179 170 173 164 150 141 148 197 197 159 193 188 170 174
141 215 171 168 266 206 230 225 187 212 342 44 113 11 177 160 237 289 215 216 221 203 179 181 174 170 174 180 177 178 179 177 174 164 127 90 80 69 61 115 214 208 179 181
189 253 189 202 227 145 255 213 222 239 97 246 149 267 248 212 218 245 230 231 236 210 198 181 175 177 178 183 182 182 179 177 179 166 165 149 154 155 190 182 193 210 197 191
239 229 170 196 220 165 228 188 206 194 153 103 316 78 260 160 211 234 223 225 224 214 214 191 186 181 185 180 181 183 184 183 177 179 168 162 148 166 168 163 189 200 226 207
223 268 153 206 231 178 234 137 53 57 118 77 232 133 286 189 221 234 238 232 218 211 221 209 198 181 184 186 179 185 179 190 182 179 168 172 167 166 164 182 183 192 222 219
348 24 344 41 74 27 70 73 353 12 30 197 237 80 240 247 231 212 216 227 204 214 208 210 193 191 185 184 185 180 186 188 192 184 176 178 180 171 181 188 187 169 179 215
106 32 10 319 86 235 305 145 153 183 178 222 201 171 294 287 275 228 232 232 200 200 205 200 195 193 189 190 186 181 186 190 191 193 187 179 175 181 179 180 187 192 195 209
103 114 327 2 41 60 313 42 284 101 25 70 264 289 277 346 17 14 314 197 219 217 211 201 192 194 190 189 191 186 181 192 192 195 192 186 181 171 184 181 187 200 200 213
47 82 350 287 15 20 86 312 56 6 123 152 313 306 244 356 348 1 15 340 271 236 217 204 214 198 193 191 190 191 187 188 190 191 193 193 189 183 171 166 189 205 213 211
18 77 295 37 24 346 11 7 16 109 94 144 133 287 297 300 341 341 325 314 288 240 229 209 206 206 198 193 189 190 190 188 189 192 194 194 193 189 167 177 190 201 207 206
335 121 57 90 327 110 83 81 93 97 325 31 220 102 355 315 330 352 355 356 344 282 236 214 198 198 195 193 189 191 194 192 191 189 189 196 190 189 185 188 190 187 203 202
320 17 42 16 351 10 43 14 55 85 64 65 83 282 337 334 346 347 2 7 8 6 35 94 142 184 196 191 199 194 194 196 193 191 187 191 195 193 203 197 186 186 194 207
80 65 120 171 182 214 359 9 73 98 75 291 226 301 325 329 349 339 348 4 11 35 43 56 50 53 68 70 80 188 197 195 192 193 200 188 194 197 204 205 185 185 188 199
82 98 112 190 220 221 199 158 99 119 178 149 263 297 308 322 337 342 339 345 42 42 49 32 27 21 23 28 269 212 178 199 190 193 199 207 199 198 199 207 197 191 189 202
358 135 46 322 328 328 278 252 218 199 204 223 227 283 7 343 354 356 354 343 354 37 21 21 34 32 8 296 243 199 191 214 186 197 198 192 202 204 200 203 207 192 193 199
70 112 77 293 324 328 48 58 58 151 46 238 208 318 334 359 342 360 345 356 357 343 6 13 38 29 17 7 233 194 190 173 205 202 199 198 198 202 207 200 204 206 203 198
115 84 86 176 11 2 234 3 313 106 70 29 29 1 348 337 303 286 353 351 353 4 350 23 32 36 11 16 11 1 308 210 182 194 203 200 205 209 203 196 202 208 203 207
128 124 117 136 194 284 347 27 7 4 181 52 353 344 332 340 297 230 359 349 342 344 348 342 65 52 21 24 2 8 356 9 14 12 256 220 218 206 203 208 208 206 206 207
65 67 114 156 153 237 242 339 323 292 241 10 7 348 339 350 344 271 340 332 332 329 338 337 342 81 39 13 359 14 32 25 10 352 330 306 281 207 202 209 211 205 200 212
13 8 95 195 227 276 21 315 297 173 295 342 344 324 324 304 255 302 310 310 318 319 319 334 344 2 36 17 5 16 16 5 350 332 315 295 289 287 224 219 206 199 202 199
150 128 191 104 239 271 15 4 1 305 227 321 319 309 298 291 295 291 293 302 308 308 312 315 327 5 355 17 20 11 358 347 337 319 303 289 278 249 264 220 210 200 197 205
187 184 186 180 222 131 147 214 274 278 296 300 298 295 291 287 286 296 292 286 293 292 293 290 304 339 324 352 348 24 340 343 349 335 320 316 301 292 268 240 210 202 199 203
256 178 212 43 279 226 247 251 325 313 298 293 281 276 275 278 280 284 287 280 269 275 282 263 233 262 298 322 336 34 12 327 318 323 327 312 310 315 284 240 196 205 207 204
203 143 201 262 286 295 264 205 215 285 278 282 281 276 275 271 275 280 283 273 272 256 260 253 242 245 263 315 347 354 315 344 322 329 327 316 311 319 308 244 209 204 217 207
184 184 183 222 218 179 237 223 232 269 285 294 309 290 280 270 285 282 280 268 252 257 244 235 233 222 288 320 325 259 286 12 322 325 309 317 308 321 320 298 222 171 242 230